Simultaneous Nadir Overpasses (SNOs) Predictions

Prediction of SNOs between LANDSAT-8 and METOP-B Satellite Orbit:

Table of predicted SNOs for the next 14.0 days since TLE Epoch: 3/19/2016
Index Date (LANDSAT-8) Time (LANDSAT-8) Lat,Lon (LANDSAT-8) SZA (LANDSAT-8 ) Date (METOP-B) Time (METOP-B) Lat,Lon (METOP-B) SZA (METOP-B ) Distance(km) Time Diff (sec)
1 03/20/2016 15:33:16 -81.12, 166.23 97.24 03/20/2016 15:33:07 -81.13, 166.24 97.24 0.23 9
2 03/20/2016 16:22:41 81.15, -25.68 82.82 03/20/2016 16:23:46 81.15, -25.81 82.83 2.39 65
3 03/23/2016 10:18:03 81.12, 64.90 81.68 03/23/2016 10:16:51 81.11, 64.75 81.63 2.82 72
4 03/23/2016 11:07:29 -81.14,-127.16 98.30 03/23/2016 11:07:30 -81.13,-127.15 98.30 0.35 1
5 03/23/2016 11:56:28 81.64, 51.06 83.15 03/23/2016 11:57:41 81.34, 51.69 83.06 34.91 73
6 03/26/2016 05:52:17 81.10, 131.06 80.56 03/26/2016 05:51:15 81.10, 130.94 80.52 2.07 62
7 03/26/2016 06:41:42 -81.14, -60.61 99.36 03/26/2016 06:41:53 -81.14, -60.53 99.35 1.31 11
8 03/29/2016 01:26:28 81.12,-162.12 79.54 03/29/2016 01:25:36 81.12,-162.12 79.51 0.52 52
9 03/29/2016 02:15:55 -81.12, 5.51 100.48 03/29/2016 02:16:17 -81.12, 5.32 100.49 3.19 22
10 03/31/2016 21:00:41 81.12, -95.74 78.46 03/31/2016 20:59:59 81.12, -95.56 78.47 3.02 42




NCC Satellite Simultaneous Nadir Overpasses (SNOs) Prediction Service
